Year,Month,Day,Hour,Minute,Value (Times are PST for windspeed in km/hr)
2014,10,21,00,00,0.00
2014,10,21,00,01,0.00
2014,10,21,00,02,0.00
2014,10,21,00,03,0.00
2014,10,21,00,04,0.00
2014,10,21,00,05,0.00
2014,10,21,00,06,0.00
2014,10,21,00,07,0.00
2014,10,21,00,08,0.00
2014,10,21,00,09,0.00
2014,10,21,00,10,0.00
2014,10,21,00,11,0.00
2014,10,21,00,12,0.00
2014,10,21,00,13,0.00
2014,10,21,00,14,0.00
2014,10,21,00,15,0.10
2014,10,21,00,16,1.40
2014,10,21,00,17,3.10
2014,10,21,00,18,2.90
2014,10,21,00,19,2.70
2014,10,21,00,20,2.50
2014,10,21,00,21,4.30
2014,10,21,00,22,2.40
2014,10,21,00,23,4.00
2014,10,21,00,24,3.50
2014,10,21,00,25,3.50
2014,10,21,00,26,2.50
2014,10,21,00,27,3.20
2014,10,21,00,28,5.50
2014,10,21,00,29,5.10
2014,10,21,00,30,4.80
2014,10,21,00,31,3.30
2014,10,21,00,32,3.60
2014,10,21,00,33,3.70
2014,10,21,00,34,4.30
2014,10,21,00,35,3.10
2014,10,21,00,36,2.40
2014,10,21,00,37,2.40
2014,10,21,00,38,0.70
2014,10,21,00,39,0.20
2014,10,21,00,40,4.10
2014,10,21,00,41,3.10
2014,10,21,00,42,0.40
2014,10,21,00,43,3.50
2014,10,21,00,44,2.50
2014,10,21,00,45,3.60
2014,10,21,00,46,0.40
2014,10,21,00,47,0.00
2014,10,21,00,48,4.30
2014,10,21,00,49,5.50
2014,10,21,00,50,3.10
2014,10,21,00,51,2.30
2014,10,21,00,52,3.80
2014,10,21,00,53,3.50
2014,10,21,00,54,3.90
2014,10,21,00,55,2.00
2014,10,21,00,56,4.20
2014,10,21,00,57,0.30
2014,10,21,00,58,1.00
2014,10,21,00,59,3.30
2014,10,21,01,00,2.20
2014,10,21,01,01,1.10
2014,10,21,01,02,2.80
2014,10,21,01,03,2.90
2014,10,21,01,04,1.60
2014,10,21,01,05,3.50
2014,10,21,01,06,0.40
2014,10,21,01,07,1.00
2014,10,21,01,08,0.00
2014,10,21,01,09,0.00
2014,10,21,01,10,0.20
2014,10,21,01,11,1.00
2014,10,21,01,12,1.00
2014,10,21,01,13,0.20
2014,10,21,01,14,3.00
2014,10,21,01,15,4.60
2014,10,21,01,16,5.10
2014,10,21,01,17,3.00
2014,10,21,01,18,0.20
2014,10,21,01,19,0.00
2014,10,21,01,20,0.00
2014,10,21,01,21,0.00
2014,10,21,01,22,0.00
2014,10,21,01,23,0.10
2014,10,21,01,24,0.10
2014,10,21,01,25,4.70
2014,10,21,01,26,3.10
2014,10,21,01,27,4.10
2014,10,21,01,28,4.10
2014,10,21,01,29,3.90
2014,10,21,01,30,3.30
2014,10,21,01,31,4.20
2014,10,21,01,32,1.20
2014,10,21,01,33,1.60
2014,10,21,01,34,3.30
2014,10,21,01,35,0.20
2014,10,21,01,36,0.00
2014,10,21,01,37,1.60
2014,10,21,01,38,2.60
2014,10,21,01,39,0.30
2014,10,21,01,40,0.20
2014,10,21,01,41,0.00
2014,10,21,01,42,0.20
2014,10,21,01,43,3.50
2014,10,21,01,44,1.40
2014,10,21,01,45,2.20
2014,10,21,01,46,6.10
2014,10,21,01,47,5.70
2014,10,21,01,48,6.00
2014,10,21,01,49,5.60
2014,10,21,01,50,4.50
2014,10,21,01,51,4.50
2014,10,21,01,52,5.40
2014,10,21,01,53,2.80
2014,10,21,01,54,0.10
2014,10,21,01,55,4.80
2014,10,21,01,56,1.50
2014,10,21,01,57,3.10
2014,10,21,01,58,4.70
2014,10,21,01,59,1.40
2014,10,21,02,00,0.60
2014,10,21,02,01,0.60
2014,10,21,02,02,0.00
2014,10,21,02,03,2.90
2014,10,21,02,04,3.60
2014,10,21,02,05,4.80
2014,10,21,02,06,3.40
2014,10,21,02,07,0.00
2014,10,21,02,08,6.00
2014,10,21,02,09,1.10
2014,10,21,02,10,0.10
2014,10,21,02,11,0.00
2014,10,21,02,12,0.00
2014,10,21,02,13,0.00
2014,10,21,02,14,0.00
2014,10,21,02,15,0.00
2014,10,21,02,16,0.00
2014,10,21,02,17,0.00
2014,10,21,02,18,0.50
2014,10,21,02,19,0.80
2014,10,21,02,20,0.00
2014,10,21,02,21,0.00
2014,10,21,02,22,2.20
2014,10,21,02,23,0.90
2014,10,21,02,24,0.00
2014,10,21,02,25,0.00
2014,10,21,02,26,0.00
2014,10,21,02,27,0.00
2014,10,21,02,28,0.10
2014,10,21,02,29,0.80
2014,10,21,02,30,1.50
2014,10,21,02,31,0.20
2014,10,21,02,32,0.00
2014,10,21,02,33,0.00
2014,10,21,02,34,0.00
2014,10,21,02,35,0.00
2014,10,21,02,36,0.00
2014,10,21,02,37,0.00
2014,10,21,02,38,0.00
2014,10,21,02,39,0.00
2014,10,21,02,40,0.00
2014,10,21,02,41,0.00
2014,10,21,02,42,0.00
2014,10,21,02,43,0.00
2014,10,21,02,44,0.00
2014,10,21,02,45,0.00
2014,10,21,02,46,0.00
2014,10,21,02,47,0.00
2014,10,21,02,48,0.00
2014,10,21,02,49,0.00
2014,10,21,02,50,0.00
2014,10,21,02,51,0.00
2014,10,21,02,52,0.00
2014,10,21,02,53,0.00
2014,10,21,02,54,0.00
2014,10,21,02,55,0.00
2014,10,21,02,56,0.00
2014,10,21,02,57,0.00
2014,10,21,02,58,0.00
2014,10,21,02,59,0.00
2014,10,21,03,00,0.00
2014,10,21,03,01,0.10
2014,10,21,03,02,0.00
2014,10,21,03,03,0.00
2014,10,21,03,04,0.00
2014,10,21,03,05,0.00
2014,10,21,03,06,0.00
2014,10,21,03,07,0.10
2014,10,21,03,08,0.00
2014,10,21,03,09,0.00
2014,10,21,03,10,0.50
2014,10,21,03,11,0.00
2014,10,21,03,12,0.00
2014,10,21,03,13,0.00
2014,10,21,03,14,0.00
2014,10,21,03,15,0.00
2014,10,21,03,16,0.00
2014,10,21,03,17,0.00
2014,10,21,03,18,0.00
2014,10,21,03,19,0.00
2014,10,21,03,20,0.00
2014,10,21,03,21,0.00
2014,10,21,03,22,0.00
2014,10,21,03,23,0.00
2014,10,21,03,24,0.00
2014,10,21,03,25,0.00
2014,10,21,03,26,0.00
2014,10,21,03,27,0.00
2014,10,21,03,28,0.00
2014,10,21,03,29,0.00
2014,10,21,03,30,0.00
2014,10,21,03,31,0.00
2014,10,21,03,32,0.00
2014,10,21,03,33,0.00
2014,10,21,03,34,0.00
2014,10,21,03,35,0.10
2014,10,21,03,36,0.00
2014,10,21,03,37,1.10
2014,10,21,03,38,2.20
2014,10,21,03,39,0.30
2014,10,21,03,40,0.00
2014,10,21,03,41,0.00
2014,10,21,03,42,0.10
2014,10,21,03,43,0.00
2014,10,21,03,44,1.20
2014,10,21,03,45,0.20
2014,10,21,03,46,0.00
2014,10,21,03,47,0.00
2014,10,21,03,48,0.00
2014,10,21,03,49,0.00
2014,10,21,03,50,0.00
2014,10,21,03,51,0.00
2014,10,21,03,52,0.00
2014,10,21,03,53,0.00
2014,10,21,03,54,0.30
2014,10,21,03,55,1.90
2014,10,21,03,56,0.00
2014,10,21,03,57,0.60
2014,10,21,03,58,3.20
2014,10,21,03,59,2.60
2014,10,21,04,00,0.00
2014,10,21,04,01,0.00
2014,10,21,04,02,0.00
2014,10,21,04,03,0.00
2014,10,21,04,04,0.10
2014,10,21,04,05,0.00
2014,10,21,04,06,0.00
2014,10,21,04,07,2.70
2014,10,21,04,08,3.30
2014,10,21,04,09,2.30
2014,10,21,04,10,2.30
2014,10,21,04,11,2.10
2014,10,21,04,12,0.10
2014,10,21,04,13,1.00
2014,10,21,04,14,2.60
2014,10,21,04,15,1.00
2014,10,21,04,16,0.00
2014,10,21,04,17,2.50
2014,10,21,04,18,2.40
2014,10,21,04,19,0.00
2014,10,21,04,20,0.00
2014,10,21,04,21,0.10
2014,10,21,04,22,0.00
2014,10,21,04,23,1.70
2014,10,21,04,24,0.70
2014,10,21,04,25,1.60
2014,10,21,04,26,1.90
2014,10,21,04,27,1.50
2014,10,21,04,28,1.90
2014,10,21,04,29,0.00
2014,10,21,04,30,0.00
2014,10,21,04,31,1.50
2014,10,21,04,32,0.00
2014,10,21,04,33,0.00
2014,10,21,04,34,0.20
2014,10,21,04,35,0.50
2014,10,21,04,36,0.60
2014,10,21,04,37,1.00
2014,10,21,04,38,3.10
2014,10,21,04,39,1.90
2014,10,21,04,40,0.80
2014,10,21,04,41,2.60
2014,10,21,04,42,3.00
2014,10,21,04,43,3.60
2014,10,21,04,44,1.30
2014,10,21,04,45,0.00
2014,10,21,04,46,0.00
2014,10,21,04,47,0.00
2014,10,21,04,48,0.00
2014,10,21,04,49,0.00
2014,10,21,04,50,0.00
2014,10,21,04,51,0.00
2014,10,21,04,52,1.80
2014,10,21,04,53,0.80
2014,10,21,04,54,0.00
2014,10,21,04,55,1.40
2014,10,21,04,56,3.70
2014,10,21,04,57,3.80
2014,10,21,04,58,4.30
2014,10,21,04,59,1.20
2014,10,21,05,00,0.00
2014,10,21,05,01,0.10
2014,10,21,05,02,5.40
2014,10,21,05,03,5.30
2014,10,21,05,04,4.80
2014,10,21,05,05,4.60
2014,10,21,05,06,3.50
2014,10,21,05,07,4.70
2014,10,21,05,08,8.00
2014,10,21,05,09,5.20
2014,10,21,05,10,7.40
2014,10,21,05,11,4.50
2014,10,21,05,12,5.80
2014,10,21,05,13,5.30
2014,10,21,05,14,4.10
2014,10,21,05,15,3.20
2014,10,21,05,16,3.70
2014,10,21,05,17,4.80
2014,10,21,05,18,3.70
2014,10,21,05,19,6.10
2014,10,21,05,20,3.40
2014,10,21,05,21,1.40
2014,10,21,05,22,4.80
2014,10,21,05,23,2.30
2014,10,21,05,24,5.80
2014,10,21,05,25,4.30
2014,10,21,05,26,1.90
2014,10,21,05,27,2.90
2014,10,21,05,28,3.50
2014,10,21,05,29,4.70
2014,10,21,05,30,2.10
2014,10,21,05,31,1.50
2014,10,21,05,32,0.00
2014,10,21,05,33,0.90
2014,10,21,05,34,2.00
2014,10,21,05,35,0.20
2014,10,21,05,36,1.80
2014,10,21,05,37,1.70
2014,10,21,05,38,1.00
2014,10,21,05,39,2.40
2014,10,21,05,40,4.70
2014,10,21,05,41,1.20
2014,10,21,05,42,5.50
2014,10,21,05,43,7.20
2014,10,21,05,44,5.40
2014,10,21,05,45,3.70
2014,10,21,05,46,3.60
2014,10,21,05,47,1.60
2014,10,21,05,48,1.10
2014,10,21,05,49,3.70
2014,10,21,05,50,1.30
2014,10,21,05,51,3.50
2014,10,21,05,52,7.20
2014,10,21,05,53,5.30
2014,10,21,05,54,3.10
2014,10,21,05,55,0.20
2014,10,21,05,56,5.10
2014,10,21,05,57,4.50
2014,10,21,05,58,5.40
2014,10,21,05,59,1.50
2014,10,21,06,00,3.60
2014,10,21,06,01,6.90
2014,10,21,06,02,3.70
2014,10,21,06,03,3.90
2014,10,21,06,04,0.90
2014,10,21,06,05,5.20
2014,10,21,06,06,4.10
2014,10,21,06,07,5.30
2014,10,21,06,08,5.90
2014,10,21,06,09,1.60
2014,10,21,06,10,3.20
2014,10,21,06,11,4.30
2014,10,21,06,12,6.00
2014,10,21,06,13,2.20
2014,10,21,06,14,2.50
2014,10,21,06,15,3.60
2014,10,21,06,16,1.30
2014,10,21,06,17,3.20
2014,10,21,06,18,2.50
2014,10,21,06,19,2.80
2014,10,21,06,20,3.00
2014,10,21,06,21,1.60
2014,10,21,06,22,4.20
2014,10,21,06,23,6.70
2014,10,21,06,24,4.10
2014,10,21,06,25,5.60
2014,10,21,06,26,8.00
2014,10,21,06,27,7.50
2014,10,21,06,28,4.40
2014,10,21,06,29,4.90
2014,10,21,06,30,3.10
2014,10,21,06,31,3.80
2014,10,21,06,32,7.40
2014,10,21,06,33,8.20
2014,10,21,06,34,9.80
2014,10,21,06,35,11.70
2014,10,21,06,36,11.00
2014,10,21,06,37,12.00
2014,10,21,06,38,8.90
2014,10,21,06,39,6.20
2014,10,21,06,40,8.50
2014,10,21,06,41,5.10
2014,10,21,06,42,4.70
2014,10,21,06,43,6.50
2014,10,21,06,44,6.70
2014,10,21,06,45,4.80
2014,10,21,06,46,8.60
2014,10,21,06,47,7.30
2014,10,21,06,48,8.10
2014,10,21,06,49,6.10
2014,10,21,06,50,8.00
2014,10,21,06,51,7.60
2014,10,21,06,52,7.80
2014,10,21,06,53,5.90
2014,10,21,06,54,6.90
2014,10,21,06,55,6.50
2014,10,21,06,56,6.20
2014,10,21,06,57,4.90
2014,10,21,06,58,3.30
2014,10,21,06,59,5.70
2014,10,21,07,00,5.80
2014,10,21,07,01,3.30
2014,10,21,07,02,6.80
2014,10,21,07,03,5.30
2014,10,21,07,04,2.80
2014,10,21,07,05,1.40
2014,10,21,07,06,5.60
2014,10,21,07,07,6.30
2014,10,21,07,08,5.30
2014,10,21,07,09,5.20
2014,10,21,07,10,5.10
2014,10,21,07,11,3.00
2014,10,21,07,12,2.90
2014,10,21,07,13,6.90
2014,10,21,07,14,2.90
2014,10,21,07,15,1.80
2014,10,21,07,16,3.80
2014,10,21,07,17,6.40
2014,10,21,07,18,4.80
2014,10,21,07,19,4.30
2014,10,21,07,20,1.40
2014,10,21,07,21,4.20
2014,10,21,07,22,1.10
2014,10,21,07,23,1.00
2014,10,21,07,24,6.00
2014,10,21,07,25,4.20
2014,10,21,07,26,4.80
2014,10,21,07,27,5.40
2014,10,21,07,28,7.10
2014,10,21,07,29,3.90
2014,10,21,07,30,2.40
2014,10,21,07,31,1.60
2014,10,21,07,32,2.40
2014,10,21,07,33,1.40
2014,10,21,07,34,4.60
2014,10,21,07,35,1.30
2014,10,21,07,36,0.30
2014,10,21,07,37,1.00
2014,10,21,07,38,0.00
2014,10,21,07,39,0.60
2014,10,21,07,40,2.20
2014,10,21,07,41,1.30
2014,10,21,07,42,0.70
2014,10,21,07,43,0.10
2014,10,21,07,44,0.00
2014,10,21,07,45,0.00
2014,10,21,07,46,0.60
2014,10,21,07,47,0.00
2014,10,21,07,48,0.00
2014,10,21,07,49,0.00
2014,10,21,07,50,0.10
2014,10,21,07,51,0.10
2014,10,21,07,52,0.00
2014,10,21,07,53,0.00
2014,10,21,07,54,0.00
2014,10,21,07,55,0.00
2014,10,21,07,56,0.00
2014,10,21,07,57,0.00
2014,10,21,07,58,0.00
2014,10,21,07,59,0.20
2014,10,21,08,00,0.00
2014,10,21,08,01,0.10
2014,10,21,08,02,0.00
2014,10,21,08,03,0.00
2014,10,21,08,04,0.00
2014,10,21,08,05,0.00
2014,10,21,08,06,0.00
2014,10,21,08,07,0.10
2014,10,21,08,08,0.00
2014,10,21,08,09,1.30
2014,10,21,08,10,2.10
2014,10,21,08,11,0.00
2014,10,21,08,12,0.00
2014,10,21,08,13,0.80
2014,10,21,08,14,2.50
2014,10,21,08,15,2.50
2014,10,21,08,16,2.40
2014,10,21,08,17,1.50
2014,10,21,08,18,0.00
2014,10,21,08,19,0.00
2014,10,21,08,20,0.00
2014,10,21,08,21,0.00
2014,10,21,08,22,0.00
2014,10,21,08,23,0.00
2014,10,21,08,24,0.00
2014,10,21,08,25,0.00
2014,10,21,08,26,0.00
2014,10,21,08,27,0.00
2014,10,21,08,28,0.00
2014,10,21,08,29,0.00
2014,10,21,08,30,0.10
2014,10,21,08,31,0.00
2014,10,21,08,32,0.00
2014,10,21,08,33,0.00
2014,10,21,08,34,0.00
2014,10,21,08,35,0.00
2014,10,21,08,36,0.00
2014,10,21,08,37,0.00
2014,10,21,08,38,0.00
2014,10,21,08,39,0.00
2014,10,21,08,40,0.00
2014,10,21,08,41,3.00
2014,10,21,08,42,3.40
2014,10,21,08,43,2.90
2014,10,21,08,44,2.90
2014,10,21,08,45,2.60
2014,10,21,08,46,1.90
2014,10,21,08,47,2.60
2014,10,21,08,48,4.50
2014,10,21,08,49,4.90
2014,10,21,08,50,6.10
2014,10,21,08,51,6.60
2014,10,21,08,52,5.90
2014,10,21,08,53,6.40
2014,10,21,08,54,5.40
2014,10,21,08,55,4.50
2014,10,21,08,56,7.10
2014,10,21,08,57,8.80
2014,10,21,08,58,5.80
2014,10,21,08,59,4.10
2014,10,21,09,00,6.40
2014,10,21,09,01,5.30
2014,10,21,09,02,2.40
2014,10,21,09,03,5.50
2014,10,21,09,04,1.60
2014,10,21,09,05,0.80
2014,10,21,09,06,0.00
2014,10,21,09,07,0.10
2014,10,21,09,08,0.30
2014,10,21,09,09,0.00
2014,10,21,09,10,0.00
2014,10,21,09,11,0.20
2014,10,21,09,12,3.60
2014,10,21,09,13,3.00
2014,10,21,09,14,0.90
2014,10,21,09,15,0.10
2014,10,21,09,16,0.00
2014,10,21,09,17,0.10
2014,10,21,09,18,3.50
2014,10,21,09,19,6.30
2014,10,21,09,20,5.40
2014,10,21,09,21,6.00
2014,10,21,09,22,5.10
2014,10,21,09,23,6.80
2014,10,21,09,24,6.10
2014,10,21,09,25,4.60
2014,10,21,09,26,1.80
2014,10,21,09,27,0.70
2014,10,21,09,28,0.00
2014,10,21,09,29,4.40
2014,10,21,09,30,5.10
2014,10,21,09,31,3.30
2014,10,21,09,32,4.90
2014,10,21,09,33,3.70
2014,10,21,09,34,0.60
2014,10,21,09,35,3.50
2014,10,21,09,36,6.30
2014,10,21,09,37,7.10
2014,10,21,09,38,2.10
2014,10,21,09,39,0.20
2014,10,21,09,40,11.20
2014,10,21,09,41,8.50
2014,10,21,09,42,6.90
2014,10,21,09,43,9.00
2014,10,21,09,44,12.90
2014,10,21,09,45,9.20
2014,10,21,09,46,9.00
2014,10,21,09,47,6.10
2014,10,21,09,48,6.90
2014,10,21,09,49,7.90
2014,10,21,09,50,6.00
2014,10,21,09,51,7.00
2014,10,21,09,52,4.70
2014,10,21,09,53,2.80
2014,10,21,09,54,6.50
2014,10,21,09,55,8.30
2014,10,21,09,56,8.40
2014,10,21,09,57,5.90
2014,10,21,09,58,6.30
2014,10,21,09,59,8.40
2014,10,21,10,00,7.60
2014,10,21,10,01,6.10
2014,10,21,10,02,4.80
2014,10,21,10,03,6.90
2014,10,21,10,04,7.30
2014,10,21,10,05,5.10
2014,10,21,10,06,6.00
2014,10,21,10,07,4.60
2014,10,21,10,08,9.40
2014,10,21,10,09,8.50
2014,10,21,10,10,11.80
2014,10,21,10,11,10.20
2014,10,21,10,12,11.60
2014,10,21,10,13,10.30
2014,10,21,10,14,10.80
2014,10,21,10,15,10.20
2014,10,21,10,16,12.10
2014,10,21,10,17,10.00
2014,10,21,10,18,7.80
2014,10,21,10,19,8.40
2014,10,21,10,20,7.50
2014,10,21,10,21,7.90
2014,10,21,10,22,10.90
2014,10,21,10,23,4.50
2014,10,21,10,24,2.40
2014,10,21,10,25,4.30
2014,10,21,10,26,8.50
2014,10,21,10,27,6.50
2014,10,21,10,28,7.00
2014,10,21,10,29,7.80
2014,10,21,10,30,6.00
2014,10,21,10,31,9.10
2014,10,21,10,32,7.00
2014,10,21,10,33,6.80
2014,10,21,10,34,4.50
2014,10,21,10,35,7.60
2014,10,21,10,36,4.80
2014,10,21,10,37,2.20
2014,10,21,10,38,5.10
2014,10,21,10,39,8.40
2014,10,21,10,40,11.00
2014,10,21,10,41,11.60
2014,10,21,10,42,11.00
2014,10,21,10,43,4.30
2014,10,21,10,44,5.40
2014,10,21,10,45,7.40
2014,10,21,10,46,1.80
2014,10,21,10,47,7.20
2014,10,21,10,48,7.30
2014,10,21,10,49,4.20
2014,10,21,10,50,2.50
2014,10,21,10,51,5.30
2014,10,21,10,52,3.20
2014,10,21,10,53,0.10
2014,10,21,10,54,4.10
2014,10,21,10,55,5.30
2014,10,21,10,56,4.80
2014,10,21,10,57,6.30
2014,10,21,10,58,0.70
2014,10,21,10,59,4.00
2014,10,21,11,00,2.20
2014,10,21,11,01,9.60
2014,10,21,11,02,9.70
2014,10,21,11,03,6.10
2014,10,21,11,04,6.50
2014,10,21,11,05,3.30
2014,10,21,11,06,2.70
2014,10,21,11,07,1.60
2014,10,21,11,08,2.00
2014,10,21,11,09,2.70
2014,10,21,11,10,0.00
2014,10,21,11,11,0.20
2014,10,21,11,12,6.20
2014,10,21,11,13,6.70
2014,10,21,11,14,8.60
2014,10,21,11,15,6.80
2014,10,21,11,16,8.00
2014,10,21,11,17,3.60
2014,10,21,11,18,2.70
2014,10,21,11,19,10.70
2014,10,21,11,20,9.40
2014,10,21,11,21,8.50
2014,10,21,11,22,4.90
2014,10,21,11,23,0.20
2014,10,21,11,24,1.00
2014,10,21,11,25,4.00
2014,10,21,11,26,6.00
2014,10,21,11,27,6.50
2014,10,21,11,28,0.70
2014,10,21,11,29,0.00
2014,10,21,11,30,3.80
2014,10,21,11,31,6.70
2014,10,21,11,32,9.20
2014,10,21,11,33,7.10
2014,10,21,11,34,8.20
2014,10,21,11,35,3.00
2014,10,21,11,36,3.10
2014,10,21,11,37,3.00
2014,10,21,11,38,9.90
2014,10,21,11,39,10.10
2014,10,21,11,40,4.00
2014,10,21,11,41,6.80
2014,10,21,11,42,6.90
2014,10,21,11,43,3.00
2014,10,21,11,44,3.00
2014,10,21,11,45,5.50
2014,10,21,11,46,3.00
2014,10,21,11,47,2.30
2014,10,21,11,48,6.40
2014,10,21,11,49,9.90
2014,10,21,11,50,12.60
2014,10,21,11,51,8.50
2014,10,21,11,52,7.70
2014,10,21,11,53,11.10
2014,10,21,11,54,11.10
2014,10,21,11,55,14.70
2014,10,21,11,56,12.10
2014,10,21,11,57,6.20
2014,10,21,11,58,9.40
2014,10,21,11,59,8.20
2014,10,21,12,00,8.00
2014,10,21,12,01,11.00
2014,10,21,12,02,14.10
2014,10,21,12,03,15.50
2014,10,21,12,04,11.60
2014,10,21,12,05,9.60
2014,10,21,12,06,14.60
2014,10,21,12,07,8.10
2014,10,21,12,08,6.30
2014,10,21,12,09,4.90
2014,10,21,12,10,6.40
2014,10,21,12,11,9.80
2014,10,21,12,12,10.60
2014,10,21,12,13,10.30
2014,10,21,12,14,13.40
2014,10,21,12,15,5.80
2014,10,21,12,16,14.00
2014,10,21,12,17,7.20
2014,10,21,12,18,3.30
2014,10,21,12,19,3.50
2014,10,21,12,20,3.10
2014,10,21,12,21,10.80
2014,10,21,12,22,8.30
2014,10,21,12,23,14.00
2014,10,21,12,24,11.10
2014,10,21,12,25,15.50
2014,10,21,12,26,13.40
2014,10,21,12,27,11.30
2014,10,21,12,28,5.30
2014,10,21,12,29,7.90
2014,10,21,12,30,13.10
2014,10,21,12,31,9.70
2014,10,21,12,32,11.80
2014,10,21,12,33,8.10
2014,10,21,12,34,3.50
2014,10,21,12,35,12.10
2014,10,21,12,36,13.20
2014,10,21,12,37,12.50
2014,10,21,12,38,10.80
2014,10,21,12,39,6.00
2014,10,21,12,40,7.80
2014,10,21,12,41,7.50
2014,10,21,12,42,9.10
2014,10,21,12,43,7.30
2014,10,21,12,44,6.80
2014,10,21,12,45,2.70
2014,10,21,12,46,11.60
2014,10,21,12,47,7.30
2014,10,21,12,48,6.20
2014,10,21,12,49,13.70
2014,10,21,12,50,5.80
2014,10,21,12,51,8.30
2014,10,21,12,52,12.90
2014,10,21,12,53,15.90
2014,10,21,12,54,16.20
2014,10,21,12,55,12.70
2014,10,21,12,56,11.70
2014,10,21,12,57,9.10
2014,10,21,12,58,7.30
2014,10,21,12,59,5.20
2014,10,21,13,00,8.70
2014,10,21,13,01,8.40
2014,10,21,13,02,8.90
2014,10,21,13,03,6.90
2014,10,21,13,04,8.10
2014,10,21,13,05,4.30
2014,10,21,13,06,6.70
2014,10,21,13,07,6.40
2014,10,21,13,08,12.10
2014,10,21,13,09,12.20
2014,10,21,13,10,9.30
2014,10,21,13,11,7.40
2014,10,21,13,12,6.40
2014,10,21,13,13,1.40
2014,10,21,13,14,2.70
2014,10,21,13,15,5.90
2014,10,21,13,16,9.20
2014,10,21,13,17,9.80
2014,10,21,13,18,12.00
2014,10,21,13,19,7.20
2014,10,21,13,20,3.00
2014,10,21,13,21,5.30
2014,10,21,13,22,5.40
2014,10,21,13,23,6.50
2014,10,21,13,24,5.60
2014,10,21,13,25,9.70
2014,10,21,13,26,10.60
2014,10,21,13,27,6.60
2014,10,21,13,28,7.50
2014,10,21,13,29,8.20
2014,10,21,13,30,2.80
2014,10,21,13,31,5.20
2014,10,21,13,32,7.70
2014,10,21,13,33,9.30
2014,10,21,13,34,7.80
2014,10,21,13,35,5.90
2014,10,21,13,36,12.60
2014,10,21,13,37,13.00
2014,10,21,13,38,10.30
2014,10,21,13,39,9.70
2014,10,21,13,40,12.80
2014,10,21,13,41,12.00
2014,10,21,13,42,7.70
2014,10,21,13,43,8.20
2014,10,21,13,44,9.40
2014,10,21,13,45,10.60
2014,10,21,13,46,10.00
2014,10,21,13,47,6.20
2014,10,21,13,48,6.80
2014,10,21,13,49,2.00
2014,10,21,13,50,6.80
2014,10,21,13,51,2.80
2014,10,21,13,52,8.90
2014,10,21,13,53,7.00
2014,10,21,13,54,4.30
2014,10,21,13,55,3.20
2014,10,21,13,56,5.20
2014,10,21,13,57,6.10
2014,10,21,13,58,3.10
2014,10,21,13,59,5.10
2014,10,21,14,00,6.80
2014,10,21,14,01,9.80
2014,10,21,14,02,9.10
2014,10,21,14,03,5.90
2014,10,21,14,04,2.00
2014,10,21,14,05,2.90
2014,10,21,14,06,0.70
2014,10,21,14,07,7.80
2014,10,21,14,08,6.90
2014,10,21,14,09,4.20
2014,10,21,14,10,5.40
2014,10,21,14,11,2.20
2014,10,21,14,12,4.70
2014,10,21,14,13,3.00
2014,10,21,14,14,3.20
2014,10,21,14,15,1.80
2014,10,21,14,16,2.50
2014,10,21,14,17,4.60
2014,10,21,14,18,4.70
2014,10,21,14,19,3.50
2014,10,21,14,20,4.70
2014,10,21,14,21,1.10
2014,10,21,14,22,4.40
2014,10,21,14,23,5.30
2014,10,21,14,24,2.60
2014,10,21,14,25,2.40
2014,10,21,14,26,1.00
2014,10,21,14,27,2.60
2014,10,21,14,28,6.00
2014,10,21,14,29,3.10
2014,10,21,14,30,3.50
2014,10,21,14,31,3.90
2014,10,21,14,32,2.00
2014,10,21,14,33,2.80
2014,10,21,14,34,4.40
2014,10,21,14,35,4.30
2014,10,21,14,36,2.80
2014,10,21,14,37,3.30
2014,10,21,14,38,2.30
2014,10,21,14,39,1.80
2014,10,21,14,40,2.40
2014,10,21,14,41,7.50
2014,10,21,14,42,5.10
2014,10,21,14,43,2.10
2014,10,21,14,44,4.70
2014,10,21,14,45,0.80
2014,10,21,14,46,3.60
2014,10,21,14,47,2.60
2014,10,21,14,48,1.80
2014,10,21,14,49,1.30
2014,10,21,14,50,0.00
2014,10,21,14,51,0.10
2014,10,21,14,52,0.10
2014,10,21,14,53,2.60
2014,10,21,14,54,2.70
2014,10,21,14,55,4.50
2014,10,21,14,56,4.70
2014,10,21,14,57,1.30
2014,10,21,14,58,0.70
2014,10,21,14,59,1.80
2014,10,21,15,00,0.50
2014,10,21,15,01,4.30
2014,10,21,15,02,2.60
2014,10,21,15,03,4.40
2014,10,21,15,04,2.00
2014,10,21,15,05,0.00
2014,10,21,15,06,4.70
2014,10,21,15,07,6.40
2014,10,21,15,08,4.70
2014,10,21,15,09,0.00
2014,10,21,15,10,5.20
2014,10,21,15,11,11.40
2014,10,21,15,12,9.10
2014,10,21,15,13,6.30
2014,10,21,15,14,5.10
2014,10,21,15,15,4.10
2014,10,21,15,16,3.50
2014,10,21,15,17,3.10
2014,10,21,15,18,6.60
2014,10,21,15,19,9.30
2014,10,21,15,20,8.00
2014,10,21,15,21,6.70
2014,10,21,15,22,4.90
2014,10,21,15,23,1.60
2014,10,21,15,24,5.60
2014,10,21,15,25,4.80
2014,10,21,15,26,0.80
2014,10,21,15,27,7.20
2014,10,21,15,28,9.00
2014,10,21,15,29,9.20
2014,10,21,15,30,4.90
2014,10,21,15,31,4.80
2014,10,21,15,32,7.60
2014,10,21,15,33,11.30
2014,10,21,15,34,10.30
2014,10,21,15,35,5.90
2014,10,21,15,36,4.50
2014,10,21,15,37,7.90
2014,10,21,15,38,7.20
2014,10,21,15,39,3.80
2014,10,21,15,40,4.60
2014,10,21,15,41,6.40
2014,10,21,15,42,3.30
2014,10,21,15,43,1.90
2014,10,21,15,44,9.50
2014,10,21,15,45,8.10
2014,10,21,15,46,9.70
2014,10,21,15,47,7.40
2014,10,21,15,48,9.80
2014,10,21,15,49,5.40
2014,10,21,15,50,4.10
2014,10,21,15,51,5.00
2014,10,21,15,52,5.90
2014,10,21,15,53,5.40
2014,10,21,15,54,5.50
2014,10,21,15,55,0.30
2014,10,21,15,56,5.80
2014,10,21,15,57,0.60
2014,10,21,15,58,1.00
2014,10,21,15,59,7.10
2014,10,21,16,00,8.60
2014,10,21,16,01,6.20
2014,10,21,16,02,8.70
2014,10,21,16,03,8.60
2014,10,21,16,04,5.40
2014,10,21,16,05,5.70
2014,10,21,16,06,6.80
2014,10,21,16,07,6.60
2014,10,21,16,08,5.10
2014,10,21,16,09,7.70
2014,10,21,16,10,8.00
2014,10,21,16,11,7.50
2014,10,21,16,12,7.50
2014,10,21,16,13,3.90
2014,10,21,16,14,2.70
2014,10,21,16,15,11.50
2014,10,21,16,16,4.70
2014,10,21,16,17,2.50
2014,10,21,16,18,3.50
2014,10,21,16,19,3.70
2014,10,21,16,20,3.10
2014,10,21,16,21,4.30
2014,10,21,16,22,3.90
2014,10,21,16,23,2.10
2014,10,21,16,24,4.60
2014,10,21,16,25,3.20
2014,10,21,16,26,0.10
2014,10,21,16,27,1.70
2014,10,21,16,28,4.00
2014,10,21,16,29,0.80
2014,10,21,16,30,1.60
2014,10,21,16,31,2.20
2014,10,21,16,32,2.00
2014,10,21,16,33,5.70
2014,10,21,16,34,5.90
2014,10,21,16,35,6.00
2014,10,21,16,36,5.40
2014,10,21,16,37,4.30
2014,10,21,16,38,1.90
2014,10,21,16,39,0.30
2014,10,21,16,40,3.10
2014,10,21,16,41,4.20
2014,10,21,16,42,5.10
2014,10,21,16,43,4.40
2014,10,21,16,44,2.50
2014,10,21,16,45,3.90
2014,10,21,16,46,4.90
2014,10,21,16,47,4.70
2014,10,21,16,48,5.10
2014,10,21,16,49,1.00
2014,10,21,16,50,4.80
2014,10,21,16,51,4.80
2014,10,21,16,52,5.90
2014,10,21,16,53,6.70
2014,10,21,16,54,0.20
2014,10,21,16,55,3.70
2014,10,21,16,56,4.00
2014,10,21,16,57,1.40
2014,10,21,16,58,5.80
2014,10,21,16,59,4.40
2014,10,21,17,00,5.10
2014,10,21,17,01,3.80
2014,10,21,17,02,6.00
2014,10,21,17,03,7.10
2014,10,21,17,04,7.20
2014,10,21,17,05,8.30
2014,10,21,17,06,8.00
2014,10,21,17,07,5.30
2014,10,21,17,08,8.20
2014,10,21,17,09,6.10
2014,10,21,17,10,9.00
2014,10,21,17,11,6.50
2014,10,21,17,12,7.70
2014,10,21,17,13,6.40
2014,10,21,17,14,2.70
2014,10,21,17,15,0.10
2014,10,21,17,16,2.30
2014,10,21,17,17,3.40
2014,10,21,17,18,2.30
2014,10,21,17,19,0.10
2014,10,21,17,20,1.10
2014,10,21,17,21,0.00
2014,10,21,17,22,0.00
2014,10,21,17,23,0.00
2014,10,21,17,24,0.00
2014,10,21,17,25,0.20
2014,10,21,17,26,0.00
2014,10,21,17,27,0.00
2014,10,21,17,28,2.20
2014,10,21,17,29,3.50
2014,10,21,17,30,2.70
2014,10,21,17,31,0.10
2014,10,21,17,32,3.10
2014,10,21,17,33,5.70
2014,10,21,17,34,7.50
2014,10,21,17,35,5.60
2014,10,21,17,36,4.70
2014,10,21,17,37,2.80
2014,10,21,17,38,1.30
2014,10,21,17,39,0.00
2014,10,21,17,40,1.60
2014,10,21,17,41,0.00
2014,10,21,17,42,0.00
2014,10,21,17,43,3.90
2014,10,21,17,44,5.30
2014,10,21,17,45,3.20
2014,10,21,17,46,3.50
2014,10,21,17,47,3.20
2014,10,21,17,48,4.70
2014,10,21,17,49,0.30
2014,10,21,17,50,0.00
2014,10,21,17,51,0.10
2014,10,21,17,52,3.50
2014,10,21,17,53,3.20
2014,10,21,17,54,3.60
2014,10,21,17,55,3.60
2014,10,21,17,56,0.30
2014,10,21,17,57,4.60
2014,10,21,17,58,4.30
2014,10,21,17,59,0.70
2014,10,21,18,00,0.00
2014,10,21,18,01,0.00
2014,10,21,18,02,0.00
2014,10,21,18,03,0.00